STARLINK-32382, 61258

Orbit data source: Space-Track

STARLINK-32382, 61258 is a payload satellite owned by SpaceX/Seattle (US) in LEO that was launched on Wed, 25 Sep 2024 UTC via an FALCON 9 launch vehicle from the Air Force Western Test Range (AFWTR). Payload-class satellites include a variety of spacecraft equipped with specific instruments for various scientific and technological missions. These include communications satellites like Starlink; space stations such as the ISS; scientific satellites like the Hubble; Earth observation satellites from companies like Planet Labs, Umbra, and HawkEye 360; GPS; miniature CubeSats for education and research; and military/defense satellites.

Loading next visibility...
Identifier
61258, 2024-175R
Orbit
LEO
Country
Flag of USUS
Related business
Manufacturer
SpaceX/Seattle
Mission
Operational Commercial Communications
Bus & Motor
STARLINK V2M, Unknown motor
Mass
730 kg wet, ~700 kg dry
Launch date (UTC)
2024-09-25 (1 year ago)
Launch vehicle
FALCON 9
Launch site
Air Force Western Test Range (AFWTR)
Object type
Payload
Rocket body
Debris
Shape & HBR
Box + 2 Pan, 17.7 m
Radar Cross Section
33.884 m², Large (>1 m²)

Expand to show TLE details & history
Last TLE update: 13 hours ago

TLE from 13 hours ago
0 STARLINK-32382
1 61258U 24175R   25305.61414956  .00002655  00000-0  10178-3 0  9990
2 61258  53.1593  69.0079 0001404 102.3610 257.7548 15.30183647 61848
Epoch: 2025-11-01T14:44Z
TLE epoch observation values (Epoch: 2025-11-01T14:44:22.521Z)
Latitude
0.00001°
Longitude
166.77236°
Altitude
476.368 km
Speed
7.629 km/s
True Right ascension
04h 36m 01s
True Declination
0° 00' 00"
Sunlit
Object was in full shadow at epoch
Visualization orbit readout
Latitude
Unknown
Longitude
Unknown
Altitude
Unknown
Speed
Unknown
Apparent Right ascension
Unknown
Apparent Declination
Unknown
Sunlit
N/A
Visualization observer readout
Local Sidereal Time
23:46:51
Azimuth
Unknown
Elevation
Unknown
Doppler factor
Unknown
Orbital elements
Apogee altitude
476.483 km
Perigee altitude
474.558 km
Semi-major axis
6,853.657 km
Eccentricity
0.00014
Inclination
53.1593°
RAAN
69.0079°
Arg. of periapsis
102.361°
True anomaly
257.73908°
Mean anomaly
257.7548°
Eccentric anomaly
257.74694°
Mean motion
3.82525 °/min
Orbital period
94.11 mins
BSTAR
0.00010178
Loading maneuver chart data...
Computing Atmospheric mass density...
Loading historical data...
Loading historical data...
Loading historical data...
Loading historical data...
Loading historical data...
Loading historical data...
Loading historical data...

Documentation

Showing up to 5 results
|